RH
71 79 89 97 102 102 101 104 104 106 107 106 109 107 105 103 98 95 93 92 90 86 83 80 78 76 75 74 74 75 75 74 73 72 72 74 77 78 76 74 76 79 80 77 71 65 60 56 51 48 46 47
52 61 73 85 95 101 102 102 101 104 106 105 107 106 106 109 107 104 101 100 98 93 90 87 84 83 80 75 72 74 76 76 75 76 77 78 80 80 81 79 76 76 79 81 77 71 65 61 57 54 51 50
36 42 52 67 81 92 98 103 103 101 103 102 104 105 104 106 106 106 105 105 106 103 101 99 94 91 88 82 78 78 79 78 75 75 75 75 75 73 74 75 74 73 75 76 76 76 75 73 69 64 60 59
38 39 39 44 58 74 85 93 98 99 103 103 104 106 104 104 103 102 105 105 105 107 105 104 101 97 95 91 90 89 88 86 82 78 76 76 73 69 69 70 70 70 69 68 69 72 75 76 74 70 69 69
34 37 39 37 39 49 63 73 79 85 93 98 102 105 105 107 105 104 107 103 102 105 103 103 103 99 98 97 98 100 98 96 93 90 89 87 82 77 75 73 69 66 63 61 61 63 66 67 68 68 70 70
31 30 36 43 42 39 43 50 58 67 78 85 92 99 103 107 109 108 109 104 102 103 101 102 103 102 101 101 103 103 102 101 98 98 98 97 93 91 91 88 81 76 70 65 63 64 65 64 63 65 66 65
42 35 30 34 42 45 41 38 41 49 58 68 77 84 90 96 101 105 107 106 105 104 102 101 102 105 102 101 104 102 102 104 100 98 97 97 95 95 98 99 95 92 87 82 78 75 72 70 68 68 68 66
50 45 37 30 30 36 42 41 40 41 43 49 55 62 70 77 82 88 94 97 100 102 103 102 104 106 102 99 101 101 102 102 98 96 96 96 95 94 97 96 92 91 90 89 86 84 81 77 75 74 75 74
55 53 46 38 28 24 31 40 44 42 41 42 42 45 52 61 67 70 75 78 83 87 90 94 98 100 99 95 93 94 96 94 91 90 89 89 89 89 92 89 83 80 79 78 78 79 78 74 72 72 73 72
55 53 49 44 35 26 24 31 39 41 39 38 37 39 44 53 59 60 62 65 68 71 74 78 82 86 88 86 83 84 86 85 83 81 79 77 76 76 77 76 74 73 70 69 69 69 68 65 64 63 63 64
49 46 45 44 41 36 30 29 35 39 39 35 31 32 37 46 54 58 60 60 61 63 65 68 72 75 77 78 76 75 75 76 74 73 71 69 67 65 64 64 64 64 63 62 62 63 61 59 58 57 56 57
40 34 36 45 49 46 43 43 46 46 45 43 39 33 31 32 39 50 58 59 58 59 61 63 67 71 74 75 73 70 68 67 67 65 63 61 59 57 56 56 56 57 57 57 59 61 61 60 60 59 58 58
31 30 33 46 57 59 55 57 64 63 57 52 48 43 36 28 26 33 44 49 52 55 58 62 66 69 71 73 72 69 65 64 64 63 60 58 56 55 54 53 53 54 54 55 56 58 59 60 61 60 59 58
30 31 34 40 51 60 61 61 66 70 68 62 56 51 42 32 25 25 29 33 38 43 49 55 60 64 66 67 68 66 63 62 62 62 60 59 59 58 58 58 56 55 54 54 54 55 55 56 57 56 55 54
34 35 37 38 39 44 52 61 70 74 73 71 66 60 50 38 30 27 27 27 30 34 38 41 45 48 51 54 56 57 57 56 56 56 55 55 55 56 57 58 57 56 55 54 53 52 52 51 52 52 52 51
47 43 41 41 39 37 41 53 71 80 79 78 76 71 60 46 37 33 33 32 32 33 35 39 42 42 42 43 44 46 47 49 50 50 51 52 52 52 54 54 55 55 56 55 54 52 51 50 50 51 51 51
63 61 55 50 45 40 40 46 61 74 79 83 86 85 75 59 48 44 44 44 43 42 43 48 51 49 45 43 42 41 40 41 42 42 43 44 45 46 47 48 49 50 51 52 52 52 52 52 52 52 53 53
60 67 70 68 61 52 47 50 59 71 80 87 91 94 92 83 73 66 63 63 62 59 54 53 53 50 48 47 49 49 48 48 50 52 52 49 47 45 44 44 43 43 44 45 47 48 47 47 47 47 48 48
47 54 64 72 76 72 64 60 63 70 79 87 91 95 99 99 94 88 82 75 71 66 57 51 50 52 56 60 64 66 67 70 73 75 73 69 65 60 55 51 48 46 45 45 45 45 44 44 43 43 43 44
40 43 49 58 70 79 81 77 73 73 77 82 83 83 86 89 88 85 83 80 77 69 57 52 53 56 61 68 74 77 78 82 85 85 82 79 77 74 68 64 62 60 59 58 56 55 53 53 52 52 51 50
32 36 40 45 54 67 80 86 87 88 91 93 93 90 87 84 81 78 80 85 86 77 64 60 63 64 63 64 68 70 72 73 76 77 78 79 80 80 78 77 77 77 77 76 75 73 70 68 67 67 67 66
19 26 31 36 42 50 64 78 87 93 98 103 105 106 103 100 98 94 92 96 98 93 85 84 86 84 79 73 68 65 65 64 64 65 68 72 75 79 82 85 89 90 90 90 91 92 89 87 85 82 83 81
13 17 21 26 32 37 46 59 73 85 94 100 103 105 108 107 107 105 105 106 108 106 103 102 99 94 90 85 79 75 73 71 71 72 73 73 77 82 86 90 94 96 97 100 102 102 102 102 99 97 98 96
13 14 15 18 23 28 33 42 55 68 80 91 97 103 108 108 105 103 106 108 109 109 106 104 100 96 95 95 94 94 93 89 86 86 83 79 81 83 83 86 90 92 96 100 100 101 102 102 102 102 104 105
12 13 14 15 16 19 24 29 38 51 63 74 84 94 102 106 104 103 105 107 108 107 104 105 105 103 102 103 103 102 102 101 96 93 88 82 83 82 82 85 86 86 92 94 90 91 92 93 96 98 99 101
12 13 14 15 15 15 17 20 25 34 46 57 66 77 87 95 101 105 107 107 107 108 105 104 106 104 104 104 104 102 103 104 101 98 96 91 89 88 87 88 84 83 87 88 85 86 86 86 89 88 88 89
11 12 13 14 15 15 16 16 18 22 30 40 49 58 68 77 88 98 105 106 104 106 105 103 104 103 104 103 102 104 102 103 103 101 102 100 97 96 95 91 84 82 84 82 82 84 84 84 84 83 84 84
11 12 12 13 14 16 17 16 17 17 20 27 35 43 51 58 69 81 94 103 104 106 106 104 103 103 104 102 101 104 101 101 104 103 103 104 101 99 98 95 88 86 87 84 84 86 86 85 84 84 85 82
11 12 12 12 13 14 16 17 17 18 18 20 25 31 38 43 51 60 72 87 97 105 107 105 102 100 103 102 101 102 100 101 104 102 101 103 102 99 99 99 96 96 96 93 92 90 87 87 85 84 83 80
10 11 12 12 13 13 15 16 17 18 18 19 20 23 27 30 36 42 50 62 74 88 99 103 103 102 103 103 102 101 100 101 102 100 100 101 102 100 100 102 101 102 102 98 96 91 87 86 84 82 81 81
8 10 11 12 13 13 14 15 16 17 18 19 19 19 21 22 24 29 34 42 51 61 74 85 92 98 103 104 105 103 100 101 101 99 100 101 102 102 100 100 101 103 103 99 98 96 92 90 86 83 81 82
Wind_Speed
89 90 89 88 87 87 87 87 87 86 85 85 84 84 83 83 83 82 83 83 83 83 82 82 82 81 80 79 78 77 76 76 75 74 74 73 73 72 72 71 71 72 73 73 74 74 75 75 75 75 74 74
90 92 92 92 91 90 89 89 88 88 88 88 87 87 86 86 85 85 85 86 86 85 85 85 84 84 83 82 81 80 80 79 79 78 77 77 77 76 75 75 75 75 76 76 77 78 78 79 79 79 79 79
90 92 95 95 94 94 93 92 91 90 90 90 90 89 89 88 88 88 88 89 89 88 88 88 87 87 86 85 84 84 83 83 82 81 81 81 81 80 79 79 79 80 80 80 80 81 81 82 82 82 82 83
90 93 95 97 97 97 96 96 95 93 93 93 92 92 91 91 91 91 91 92 91 91 91 90 90 90 89 88 88 87 87 87 86 85 84 85 86 84 83 84 84 84 84 84 84 84 85 85 85 85 85 87
93 93 94 96 99 99 99 98 98 97 96 96 95 95 94 94 93 93 94 94 94 94 93 93 93 92 91 91 91 91 91 90 89 88 87 88 89 88 87 88 88 88 89 88 88 88 89 89 89 89 89 90
96 96 96 96 98 100 100 99 98 98 99 99 98 97 97 97 96 97 97 97 96 96 95 95 95 95 94 93 93 93 93 93 92 91 91 91 91 90 91 92 92 92 92 91 91 92 92 92 92 92 93 93
98 99 100 99 99 99 101 100 99 99 99 100 99 99 99 99 99 100 100 99 99 97 97 97 97 97 96 95 95 95 95 95 94 93 93 94 93 93 94 94 95 95 94 94 94 95 95 95 94 95 96 96
100 102 102 102 102 102 101 100 99 99 99 100 100 100 100 100 101 102 103 102 101 100 100 100 100 100 99 99 98 97 98 98 97 96 96 96 96 96 96 97 97 97 97 97 97 97 98 98 97 98 98 99
103 104 104 104 105 105 103 103 102 100 99 99 100 100 101 102 103 103 104 104 103 103 103 103 103 104 104 103 102 101 101 101 101 100 100 99 99 99 100 100 100 99 99 99 99 100 100 100 100 100 101 101
105 104 105 106 107 108 107 107 107 105 103 101 100 100 100 102 104 105 104 104 104 104 104 105 105 106 107 107 106 105 105 105 104 104 103 103 103 103 103 103 103 103 102 102 102 103 103 103 103 103 104 104
109 107 106 107 108 110 111 111 111 110 109 107 105 103 102 103 104 105 106 106 105 105 105 105 106 107 108 109 109 108 107 107 107 107 107 107 106 106 106 107 106 106 106 106 106 106 106 106 106 106 106 106
112 111 109 109 110 111 112 112 113 114 113 113 111 109 108 107 106 106 107 108 106 106 106 106 106 107 108 109 110 110 109 109 109 109 110 109 109 109 109 109 109 108 108 108 108 108 108 108 108 109 109 109
114 112 111 111 112 112 112 112 113 115 117 117 115 114 112 111 109 109 110 110 108 107 106 106 107 108 109 110 110 111 110 109 110 111 111 111 110 110 110 110 109 109 109 109 109 109 109 109 110 111 111 111
116 114 114 114 114 115 114 114 114 116 118 118 117 117 115 114 113 113 113 113 110 109 109 109 109 110 110 111 111 111 111 110 111 112 112 112 112 112 111 111 110 110 110 110 110 110 110 110 111 112 112 112
119 118 117 117 118 117 116 115 116 117 118 119 118 118 118 117 117 116 115 115 113 113 113 113 113 113 113 113 113 113 112 112 113 113 113 113 113 113 113 112 112 111 111 112 111 111 111 111 111 112 113 113
121 121 120 120 121 120 119 118 118 119 119 119 119 119 120 120 119 118 118 118 117 117 116 116 117 117 117 116 116 115 114 114 114 115 114 115 115 114 114 113 113 112 112 113 113 113 113 113 113 113 114 114
123 123 123 123 123 122 121 121 121 121 121 120 120 120 121 121 121 121 121 121 121 121 120 120 121 120 119 119 119 119 118 117 117 117 117 117 117 117 117 117 116 116 116 116 116 116 116 116 116 117 117 117
125 124 124 124 124 123 123 123 124 124 123 122 122 122 121 122 122 122 122 123 123 124 124 124 124 123 122 121 122 123 122 121 121 121 121 121 121 120 120 120 120 120 120 120 120 120 120 121 121 121 121 121
127 125 124 124 124 125 125 125 126 126 125 125 124 124 123 123 123 123 124 125 126 127 128 127 126 125 125 125 126 126 125 124 124 125 125 124 124 124 124 123 123 123 123 123 124 124 124 124 124 124 124 124
128 127 125 124 125 125 126 127 128 128 128 128 128 127 126 126 126 125 125 126 128 130 130 128 127 128 128 128 129 129 128 127 127 128 128 128 127 127 127 126 126 126 126 127 127 127 128 127 127 127 127 127
128 128 127 126 125 125 126 127 128 129 129 129 129 129 129 129 129 128 127 128 130 132 131 129 129 130 131 131 131 131 131 131 131 131 130 130 130 130 129 129 129 129 129 129 129 130 130 130 130 129 129 129
125 127 128 127 126 126 126 127 128 129 130 130 130 130 130 130 130 129 128 129 131 133 131 130 130 131 132 133 133 134 134 134 134 134 133 133 132 132 131 131 131 131 131 131 131 131 131 131 131 131 131 131
120 124 127 128 128 128 127 127 128 129 130 130 130 130 130 130 130 130 129 130 132 133 132 131 131 132 133 134 135 135 136 136 136 136 136 135 134 134 133 133 133 133 133 133 133 133 133 133 132 132 132 133
115 119 123 126 128 129 128 128 128 129 130 130 131 131 131 132 131 131 130 132 133 133 132 132 132 133 134 134 135 136 136 137 138 138 138 138 137 136 136 136 135 135 135 135 135 135 135 135 135 134 134 135
111 115 119 122 126 128 129 129 128 129 130 130 131 131 132 132 132 132 132 133 134 134 134 133 133 134 135 135 136 136 137 138 139 140 140 140 139 139 138 138 138 138 138 138 138 138 138 138 138 138 138 138
108 112 115 118 122 125 127 129 129 129 129 130 131 131 131 132 132 132 133 134 134 135 135 134 134 135 136 136 136 136 137 138 139 140 141 141 141 141 141 141 141 141 141 141 142 142 141 141 141 142 142 142
106 109 112 115 118 121 124 126 128 129 129 130 130 131 131 131 132 132 132 133 134 134 134 134 134 135 135 135 135 135 136 137 138 139 140 141 141 142 142 143 143 143 144 144 145 145 144 144 145 145 145 145
104 106 110 113 116 119 122 124 126 128 129 130 131 131 131 131 131 131 132 133 134 133 133 133 133 134 135 135 135 134 135 136 137 138 139 140 141 142 142 143 144 145 145 146 147 147 146 147 147 146 147 147
103 105 107 111 114 117 120 123 125 127 128 129 131 132 132 132 132 132 132 132 133 133 133 133 132 132 133 134 135 135 134 135 136 137 138 139 140 141 141 141 142 143 145 146 147 148 148 148 148 148 149 149
99 104 106 108 112 115 118 122 124 126 127 129 130 132 133 134 133 133 133 133 133 133 134 134 133 133 133 134 135 135 135 136 136 137 137 138 138 138 138 139 139 141 143 145 146 148 149 149 149 149 150 149
90 98 104 107 110 113 116 120 123 125 127 129 130 132 133 134 135 135 135 135 135 135 135 135 135 136 136 136 136 136 136 136 136 136 136 136 136 137 137 137 138 139 142 144 146 147 148 149 150 150 150 149
Wind_Direction
245 245 246 246 247 248 249 250 250 251 251 252 252 252 253 253 254 254 255 256 256 257 257 258 259 260 260 260 260 261 261 262 262 263 264 264 264 265 265 266 266 267 268 269 269 270 271 271 272 273 273 274
246 247 247 247 247 247 248 249 250 250 251 251 252 252 253 254 254 255 256 256 257 258 258 258 259 259 260 261 261 261 262 262 263 263 263 264 264 264 264 265 266 266 267 268 269 270 271 271 272 272 273 273
248 248 248 248 247 247 248 248 249 249 250 251 252 252 252 253 254 255 256 256 257 258 258 259 259 260 261 261 262 262 262 262 263 263 263 264 264 264 264 265 265 265 266 267 268 269 270 271 271 272 273 273
250 250 249 248 248 248 248 248 249 249 250 251 252 252 253 253 254 254 255 256 256 257 258 258 259 260 261 262 262 263 263 263 263 264 264 265 265 265 266 266 266 266 266 267 267 268 269 270 271 272 272 272
251 252 252 250 249 249 249 249 250 250 251 251 252 253 253 254 254 254 255 255 256 257 258 258 259 260 261 261 262 262 263 263 264 264 265 265 266 267 267 267 267 267 268 268 269 269 269 270 271 271 272 272
252 253 253 252 250 249 249 249 250 251 251 252 252 253 253 254 254 254 255 255 256 257 258 259 259 260 260 261 261 262 263 263 264 264 264 265 266 266 267 267 268 268 269 269 270 270 270 270 271 272 272 272
252 253 254 254 253 251 250 249 249 250 251 251 252 253 253 254 255 255 255 256 256 257 258 258 259 259 260 260 261 261 262 263 263 264 264 265 266 266 267 267 268 268 269 269 270 270 270 271 271 272 272 273
252 253 255 256 256 255 252 251 251 250 251 251 252 253 253 254 255 255 256 256 257 257 258 258 259 259 259 259 260 260 261 262 263 263 264 264 265 266 266 267 267 268 269 269 269 270 270 271 271 272 272 273
252 254 255 257 258 258 257 255 253 252 252 253 253 254 254 254 254 255 255 256 256 257 257 258 259 259 260 260 260 260 261 262 263 263 263 264 264 265 266 266 267 268 268 269 269 269 270 271 271 272 272 273
251 253 255 257 258 259 259 258 256 254 254 254 255 255 255 255 255 255 255 255 256 256 257 258 258 259 260 260 260 260 261 262 263 263 263 264 264 265 265 266 266 267 267 268 268 269 269 270 271 271 271 272
250 252 254 255 257 258 258 258 258 256 255 255 256 256 257 256 256 256 256 256 256 256 256 257 258 259 259 260 261 261 261 262 263 263 264 264 264 265 265 266 266 267 267 268 268 269 269 270 270 271 271 271
250 251 252 253 255 256 257 258 258 258 257 257 257 258 258 258 258 257 257 257 256 256 257 257 258 259 259 260 261 261 261 262 263 263 264 264 265 266 266 266 267 267 268 268 268 269 269 270 270 271 271 271
249 250 251 252 253 254 255 256 257 258 258 258 259 260 260 261 261 260 259 259 257 257 257 258 259 259 260 260 261 262 262 263 263 264 265 265 266 266 266 267 267 267 268 268 269 269 270 270 271 271 271 272
248 249 250 251 252 253 254 255 256 257 258 259 260 261 262 262 262 262 262 262 261 259 258 258 258 259 260 261 262 262 263 263 264 264 265 266 266 266 267 267 267 268 268 269 269 270 270 270 271 271 272 272
248 249 249 250 251 252 253 255 255 256 257 258 259 260 261 262 262 263 263 263 263 263 262 261 261 261 261 261 262 262 263 263 264 264 265 266 266 267 267 267 268 268 269 269 270 270 270 271 271 271 272 273
247 248 248 249 250 251 252 254 255 255 256 257 258 259 260 261 262 263 263 264 264 264 264 265 264 264 264 264 264 264 264 264 265 265 265 265 266 266 267 267 268 268 269 269 270 270 270 271 271 271 272 273
246 247 248 248 249 250 251 252 254 255 256 256 257 258 259 260 261 262 263 264 264 265 265 265 265 266 266 267 267 267 267 267 267 267 267 267 267 267 267 268 268 269 269 270 271 271 271 272 272 272 273 274
245 246 247 248 249 249 250 251 252 254 255 256 256 257 258 259 260 260 261 262 263 263 264 264 265 266 267 267 268 268 269 269 269 270 270 270 270 270 270 270 271 271 272 272 273 273 273 273 274 274 274 275
245 245 245 246 247 248 249 250 251 252 253 254 255 256 257 257 258 259 260 261 261 262 263 263 264 265 266 267 267 267 268 269 269 269 270 270 271 271 272 272 273 273 274 274 274 274 274 275 275 275 275 276
244 245 245 245 246 247 248 248 249 250 252 253 254 255 255 256 257 258 259 260 261 261 262 263 264 264 265 265 265 266 266 267 267 268 269 269 270 271 271 272 273 273 274 274 274 274 275 275 276 276 276 277
244 244 244 244 245 245 246 247 248 249 250 251 253 254 255 256 257 257 258 259 260 261 262 263 263 264 264 264 265 265 266 266 266 267 267 268 269 269 270 271 272 272 272 273 273 274 274 275 275 276 276 277
244 244 244 243 243 244 245 245 246 247 248 249 250 252 253 254 256 256 257 258 259 260 261 262 262 263 264 264 265 266 266 267 267 267 268 268 268 269 269 270 270 270 271 271 272 272 273 274 274 275 275 276
244 245 244 244 243 243 244 244 245 246 247 248 249 250 251 252 254 255 255 256 257 258 260 260 261 262 263 264 265 266 267 267 267 267 268 268 268 269 269 269 269 270 270 270 271 271 272 272 273 273 273 274
243 244 245 245 244 243 243 243 244 246 246 247 248 249 250 251 252 253 254 255 256 257 258 259 260 261 262 263 264 265 266 266 267 267 268 268 268 269 269 269 269 269 269 269 270 270 270 271 271 272 272 273
242 242 243 245 245 244 243 243 243 245 246 247 247 248 249 250 251 252 253 254 255 256 257 258 259 260 261 261 262 263 264 265 266 267 267 268 268 268 269 269 269 269 269 269 270 270 270 271 271 271 271 271
242 242 242 243 244 245 244 244 243 243 245 246 247 248 249 250 251 252 252 253 254 255 256 257 258 259 259 260 261 262 263 264 265 266 266 267 268 268 268 269 269 269 270 270 270 271 271 271 271 271 271 272
243 242 242 242 243 244 245 245 244 243 244 245 246 247 248 249 250 251 252 253 254 254 255 256 257 258 259 259 260 261 261 262 263 264 265 266 266 267 268 269 269 270 270 270 270 271 271 271 272 272 272 272
244 243 242 242 242 243 244 245 245 245 244 244 245 246 247 248 249 250 251 252 253 254 255 255 256 257 258 258 259 260 260 261 262 263 264 264 265 266 267 268 269 270 270 271 271 271 271 272 272 272 273 273
244 244 243 243 242 242 243 244 245 245 245 245 245 245 246 247 248 249 250 251 252 253 254 255 255 256 257 258 258 259 259 260 261 262 263 264 265 266 267 268 268 269 270 270 271 271 272 272 273 273 274 274
244 244 244 244 243 243 243 243 244 245 245 245 245 246 246 247 247 248 249 250 251 252 253 254 255 255 256 257 258 258 259 260 261 262 263 264 265 266 266 266 267 268 269 269 270 271 271 272 273 273 274 275
246 245 244 244 244 244 243 243 244 244 245 246 246 246 246 247 247 247 248 249 250 251 252 253 254 255 255 256 257 257 258 259 260 261 262 263 264 264 265 265 266 267 268 269 270 271 271 272 273 274 274 275